Location: Maiden
(35.5760°N, 81.2120°W)
Time: 03:34:33
(UTC-04:00)

Cosmos 1733 - Pass Details

Date: 14 June 2018
Orbit: 506 x 525 km, 82.5° (Epoch: 21 June)

Event Time Altitude Azimuth Distance (km) Brightness Sun altitude
Rises 21:21:35 0° 7° (N) 2,619 7.2 -7.6°
Reaches altitude 10° 21:24:00 10° 21° (NNE) 1,727 6.1 -8.0°
Maximum altitude 21:27:08 24° 78° (ENE) 1,072 4.4 -8.5°
Enters shadow 21:29:51 12° 130° (SE) 1,585 5.0 -9.0°
